Tracking 17925 objects as of 22-January-2017
HD Live streaming from Space Station
objects crossing your sky now

CZ-2D DEB

Track CZ-2D DEB now!
10-day predictions


NORAD ID: 28742
Int'l Code: 2005-024F
Perigee: 522.8 km
Apogee: 687.3 km
Inclination: 97.7 °
Period: 96.6 minutes
Semi major axis: 6976 km
RCS: 0.0146 m2 (small)
Launch date: July 5, 2005
Source: People's Republic of China (PRC)
Launch site: Jiuquan Satellite Launch Center, China (JSC)

Note: This is SATELLITE DEBRIS
Your satellite tracking list
Your tracking list is empty





NASA's NSSDC Master Catalog

Two Line Element Set (TLE):
1 28742U 05024F   17020.89504918 +.00001260 +00000-0 +11823-3 0  9995
2 28742 097.6632 184.0666 0117897 348.8418 011.0188 14.90693122614735
Source of the keplerian elements: AFSPC